EW8324 Weather Reports


Display with metric or nautical units.
time (UTC)temp
F
wind
direction
speed
MPH
gust
MPH
rain 1hr
in
rain 24hr
in
rain mn
in
humidity
%
barometer
mb
20260504050433 65 245 0.0 0.0 0.01 0.24 0.00 68 1013.8
20260504045933 65 245 0.0 0.0 0.01 0.24 0.24 67 1013.7
20260504045433 65 245 0.0 0.0 0.01 0.24 0.24 67 1013.8
20260504044934 65 245 0.0 0.0 0.00 0.23 0.23 66 1013.9
20260504044426 66 245 0.0 0.0 0.00 0.23 0.23 66 1014.0
20260504043934 66 245 0.0 0.0 0.00 0.23 0.23 66 1013.9
20260504043431 66 245 0.0 0.0 0.00 0.23 0.23 66 1014.0
20260504042933 66 245 0.0 0.0 0.00 0.23 0.23 66 1013.9
20260504042432 66 245 0.0 0.0 0.00 0.24 0.23 64 1014.0
20260504041933 66 245 0.0 0.0 0.00 0.24 0.23 64 1013.9
20260504041444 67 245 0.0 0.0 0.00 0.24 0.23 64 1014.0
20260504040934 67 245 0.0 0.0 0.00 0.24 0.23 64 1014.0
20260504040431 67 245 0.0 0.0 0.00 0.24 0.23 64 1014.0
20260504040416 67 245 0.0 0.0 0.00 0.24 0.23 63 1014.0
20260504040038 67 245 0.0 0.0 0.00 0.24 0.23 63 1014.0
20260504035431 67 245 0.0 0.0 0.00 0.24 0.23 62 1013.9
20260504034931 68 245 0.0 0.0 0.00 0.24 0.23 61 1013.8
20260504034429 68 245 0.0 0.0 0.00 0.24 0.23 62 1013.9
20260504034147 68 245 0.0 0.0 0.00 0.24 0.23 59 1014.0
20260504034039 68 245 0.0 0.0 0.00 0.24 0.23 59 1014.0
20260504033430 69 245 0.0 0.0 0.00 0.25 0.23 59 1013.9
20260504032933 69 245 0.0 0.0 0.00 0.25 0.23 58 1014.0
20260504032429 69 245 0.0 0.0 0.00 0.25 0.23 58 1014.1
20260504031932 69 245 0.0 0.0 0.00 0.25 0.23 58 1014.0
20260504031429 69 245 0.0 0.0 0.00 0.25 0.23 57 1013.9
20260504030930 69 245 0.0 0.0 0.00 0.25 0.23 57 1013.9
20260504030430 69 245 0.0 0.0 0.01 0.25 0.23 56 1013.9
20260504030421 70 245 0.0 0.0 0.01 0.26 0.23 56 1013.9
20260504030040 70 245 0.0 0.0 0.01 0.26 0.23 56 1013.9
20260504025428 70 245 0.0 0.0 0.01 0.26 0.23 56 1013.8
20260504024931 70 245 0.0 0.0 0.01 0.26 0.23 56 1013.8
20260504024651 70 250 0.0 0.0 0.01 0.26 0.23 55 1013.7
20260504024535 70 250 0.0 0.0 0.01 0.26 0.23 55 1013.7
20260504023933 71 251 0.0 0.0 0.01 0.26 0.23 54 1013.7
20260504023429 71 251 0.0 0.0 0.01 0.26 0.23 54 1013.8
20260504023153 71 251 0.0 0.0 0.01 0.26 0.23 53 1013.8
20260504023033 71 251 0.0 0.0 0.01 0.26 0.23 53 1013.8
20260504022428 71 221 0.0 0.0 0.01 0.26 0.23 53 1013.8
20260504022152 71 221 0.0 0.0 0.01 0.27 0.23 52 1013.7
20260504022039 71 221 0.0 0.0 0.01 0.27 0.23 52 1013.7
20260504021427 71 226 0.0 0.0 0.01 0.27 0.23 52 1013.6
20260504021153 71 248 0.0 0.0 0.01 0.27 0.23 52 1013.6
20260504021041 71 248 0.0 0.0 0.01 0.27 0.23 52 1013.6
20260504020429 71 250 0.0 0.0 0.00 0.26 0.22 52 1013.5
20260504015930 72 220 0.0 0.0 0.00 0.26 0.22 52 1013.4
20260504015428 72 245 0.0 0.0 0.00 0.26 0.22 51 1013.3
20260504014928 72 221 0.0 0.0 0.00 0.26 0.22 52 1013.4
20260504014654 72 221 0.0 0.0 0.00 0.27 0.22 51 1013.4
20260504014538 72 221 0.0 0.0 0.00 0.27 0.22 51 1013.4
20260504013928 72 224 0.0 0.0 0.01 0.27 0.22 51 1013.4
20260504013428 72 244 0.0 0.0 0.01 0.27 0.22 51 1013.3
20260504012930 73 244 0.0 0.0 0.01 0.27 0.22 51 1013.1
20260504012429 73 155 0.0 1.0 0.01 0.27 0.22 50 1013.1
20260504012203 73 197 0.0 2.0 0.01 0.27 0.22 50 1013.1
20260504012049 73 197 0.0 2.0 0.01 0.27 0.22 50 1013.1
20260504011429 73 197 0.0 2.0 0.01 0.27 0.22 50 1013.1
20260504010930 73 151 0.0 1.0 0.01 0.28 0.22 49 1013.1
20260504010426 73 151 0.0 0.0 0.01 0.28 0.22 48 1013.0
20260504005928 74 155 0.0 0.0 0.01 0.28 0.22 48 1013.0
20260504005915 74 149 0.0 0.0 0.01 0.28 0.22 47 1013.0
20260504005535 74 149 0.0 0.0 0.01 0.28 0.22 47 1013.0
20260504004929 74 221 0.0 0.0 0.01 0.28 0.22 47 1013.1
20260504004427 74 223 0.0 0.0 0.01 0.28 0.22 47 1013.1
20260504003927 75 96 0.0 0.0 0.00 0.28 0.21 46 1013.1
20260504003426 75 169 0.0 0.0 0.00 0.28 0.21 46 1013.1
20260504002928 75 164 0.0 0.0 0.00 0.28 0.21 46 1013.1
20260504002425 76 164 0.0 0.0 0.00 0.28 0.21 45 1013.1
20260504001930 76 164 0.0 0.0 0.00 0.28 0.21 44 1012.9
20260504001647 76 162 0.0 0.0 0.00 0.28 0.21 44 1013.0
20260504001535 76 162 0.0 0.0 0.00 0.28 0.21 44 1013.0
20260504000928 76 158 0.0 1.0 0.00 0.29 0.21 43 1013.1
20260504000425 76 166 0.0 1.0 0.00 0.29 0.21 42 1013.2
20260503235929 76 144 0.0 0.0 0.01 0.29 0.21 43 1013.2
20260503235426 77 142 0.0 0.0 0.01 0.29 0.21 43 1013.2
20260503234926 77 243 0.0 0.0 0.01 0.29 0.21 43 1013.3
20260503234425 77 243 0.0 0.0 0.01 0.30 0.21 42 1013.1
20260503233927 77 159 0.0 0.0 0.01 0.30 0.21 42 1013.2
20260503233643 77 89 0.0 0.0 0.01 0.30 0.21 42 1013.3
20260503233534 77 89 0.0 0.0 0.01 0.30 0.21 42 1013.3
20260503232927 78 151 0.0 1.0 0.01 0.30 0.21 41 1013.2
20260503232424 78 188 0.0 1.0 0.01 0.30 0.21 40 1013.3
20260503231926 78 231 0.0 0.0 0.01 0.31 0.21 40 1013.4
20260503231655 78 231 0.0 0.0 0.01 0.31 0.21 40 1013.3
20260503231533 78 231 0.0 0.0 0.01 0.31 0.21 40 1013.3
20260503230928 78 231 0.0 1.0 0.01 0.31 0.21 40 1013.3
20260503230425 79 231 0.0 1.0 0.01 0.31 0.21 40 1013.3
20260503230158 79 185 0.0 0.0 0.01 0.30 0.20 41 1013.4
20260503230037 79 185 0.0 0.0 0.01 0.30 0.20 41 1013.4
20260503225423 79 228 0.0 2.0 0.01 0.31 0.20 40 1013.5
20260503224926 79 228 0.0 2.0 0.01 0.31 0.20 39 1013.5
20260503224424 79 219 0.0 1.0 0.01 0.31 0.20 39 1013.4
20260503224150 79 102 0.0 1.0 0.01 0.31 0.20 40 1013.5
20260503224033 79 102 0.0 1.0 0.01 0.31 0.20 40 1013.5
20260503223423 79 102 0.0 0.0 0.01 0.31 0.20 38 1013.6
20260503222926 79 164 0.0 0.0 0.01 0.32 0.20 38 1013.7
20260503222424 79 109 0.0 0.0 0.01 0.32 0.20 40 1013.8
20260503221925 79 89 0.0 3.0 0.01 0.32 0.20 40 1013.8
20260503221422 79 89 0.0 3.0 0.01 0.32 0.20 39 1014.0
20260503221157 80 157 0.0 0.0 0.01 0.33 0.20 38 1014.1
20260503221034 80 157 0.0 0.0 0.01 0.33 0.20 38 1014.1
20260503220424 80 135 0.0 1.0 0.01 0.33 0.20 38 1013.9
20260503220149 80 168 0.0 0.0 0.00 0.32 0.19 39 1013.9
20260503220033 80 168 0.0 0.0 0.00 0.32 0.19 39 1013.9
20260503215422 80 168 0.0 1.0 0.00 0.32 0.19 37 1014.0
20260503215141 80 207 0.0 1.0 0.00 0.33 0.19 39 1013.9
20260503215032 80 207 0.0 1.0 0.00 0.33 0.19 39 1013.9
20260503214422 79 151 0.0 0.0 0.00 0.33 0.19 37 1014.0
20260503213924 79 138 0.0 0.0 0.01 0.33 0.19 37 1014.1
20260503213422 79 164 0.0 0.0 0.01 0.33 0.19 36 1014.3
20260503213146 80 145 0.0 0.0 0.01 0.34 0.19 36 1014.4
20260503213031 80 145 0.0 0.0 0.01 0.34 0.19 36 1014.4
20260503212653 80 168 0.0 0.0 0.01 0.34 0.19 37 1014.5
20260503212530 80 168 0.0 0.0 0.01 0.34 0.19 37 1014.5
20260503211920 80 188 0.0 0.0 0.01 0.34 0.19 38 1014.5
20260503211642 80 172 0.0 0.0 0.01 0.34 0.19 37 1014.6
20260503211529 80 172 0.0 0.0 0.01 0.34 0.19 37 1014.6
20260503211147 80 235 0.0 0.0 0.01 0.34 0.19 39 1014.5
20260503211031 80 235 0.0 0.0 0.01 0.34 0.19 39 1014.5
20260503210423 80 298 0.0 0.0 0.01 0.35 0.19 37 1014.5
20260503205925 80 141 0.0 0.0 0.01 0.35 0.19 37 1014.6
20260503205423 80 214 0.0 0.0 0.01 0.35 0.19 36 1014.8
20260503204923 80 171 0.0 0.0 0.02 0.36 0.19 35 1014.9
20260503204421 80 172 0.0 2.0 0.02 0.36 0.19 37 1015.0
20260503204400 80 42 0.0 2.0 0.01 0.35 0.18 37 1015.1
20260503204030 80 42 0.0 2.0 0.01 0.35 0.18 37 1015.1
20260503203422 81 189 0.0 0.0 0.01 0.35 0.18 37 1015.2
20260503202923 82 85 0.0 0.0 0.01 0.36 0.18 36 1015.2
20260503202420 82 244 0.0 3.0 0.01 0.36 0.18 35 1015.3
20260503201922 82 172 0.0 4.0 0.01 0.36 0.18 37 1015.4
20260503201420 82 161 0.0 4.0 0.01 0.37 0.18 34 1015.4
20260503200925 83 6 0.0 0.0 0.01 0.37 0.18 37 1015.6
20260503200421 83 56 0.0 0.0 0.01 0.37 0.18 39 1015.7
20260503195923 82 16 0.0 0.0 0.02 0.37 0.18 38 1015.8
20260503195420 82 149 0.0 1.0 0.02 0.38 0.18 36 1015.9
20260503194923 82 190 0.0 1.0 0.01 0.37 0.17 35 1015.9
20260503194420 82 166 0.0 5.0 0.01 0.37 0.17 38 1016.0
20260503193923 82 128 0.0 5.0 0.01 0.38 0.17 38 1016.1
20260503193420 82 97 0.0 1.0 0.01 0.38 0.17 39 1016.1
20260503192923 82 83 0.0 3.0 0.01 0.38 0.17 37 1016.2
20260503192419 82 217 0.0 4.0 0.01 0.39 0.17 39 1016.3
20260503192150 83 238 1.0 4.0 0.01 0.39 0.17 36 1016.3
20260503192030 83 238 1.0 4.0 0.01 0.39 0.17 36 1016.3
20260503191419 83 262 0.0 0.0 0.02 0.39 0.17 39 1016.4
20260503191147 83 327 0.0 0.0 0.02 0.40 0.17 39 1016.5
20260503191034 83 327 0.0 0.0 0.02 0.40 0.17 39 1016.5
20260503190419 83 4 0.0 0.0 0.02 0.40 0.17 39 1016.5
20260503185923 82 65 0.0 0.0 0.01 0.40 0.16 38 1016.5
20260503185419 82 295 0.0 0.0 0.01 0.40 0.16 35 1016.5
20260503184923 82 197 0.0 0.0 0.01 0.40 0.16 35 1016.7
20260503184419 82 209 0.0 0.0 0.01 0.41 0.16 39 1016.7
20260503183923 82 151 0.0 3.0 0.01 0.41 0.16 37 1016.8
20260503183640 83 147 0.0 3.0 0.01 0.41 0.16 37 1016.8
20260503183524 83 147 0.0 3.0 0.01 0.41 0.16 37 1016.8
20260503183155 83 104 0.0 0.0 0.02 0.42 0.16 39 1016.9
20260503182419 82 166 0.0 0.0 0.02 0.42 0.16 41 1017.0
20260503181418 82 231 0.0 6.0 0.01 0.42 0.15 40 1017.2
20260503180924 81 241 0.0 5.0 0.01 0.42 0.15 39 1017.2
20260503180417 81 171 2.0 5.0 0.01 0.42 0.15 40 1017.4
20260503175922 82 124 0.0 0.0 0.01 0.43 0.15 38 1017.4
20260503175418 82 172 0.0 3.0 0.02 0.43 0.15 41 1017.4
20260503175144 81 6 0.0 3.0 0.02 0.44 0.15 44 1017.6
20260503175030 81 6 0.0 3.0 0.02 0.44 0.15 44 1017.6
20260503174417 81 164 0.0 3.0 0.02 0.44 0.15 36 1017.8
20260503173922 82 168 1.0 3.0 0.02 0.44 0.15 39 1017.9
20260503173417 81 228 0.0 6.0 0.02 0.44 0.15 38 1017.9
20260503172920 81 220 1.0 6.0 0.01 0.43 0.14 38 1018.1
20260503172417 81 206 1.0 3.0 0.01 0.43 0.14 39 1018.1
20260503171933 81 226 0.0 0.0 0.01 0.43 0.14 38 1018.2
20260503171416 81 141 0.0 0.0 0.01 0.43 0.14 38 1018.3
20260503170922 81 165 0.0 0.0 0.02 0.43 0.14 41 1018.2
20260503170417 81 179 0.0 0.0 0.02 0.43 0.14 38 1018.3
20260503160136 0 0.0 0.0 0.01 0.41 0.12 1018.4
20260503150912 75 161 0.0 0.0 0.01 0.40 0.11 55 1018.2
20260503150900 75 165 0.0 0.0 0.01 0.40 0.11 54 1018.2
20260503150520 75 165 0.0 0.0 0.01 0.40 0.11 54 1018.2
20260503131409 57 243 0.0 0.0 0.01 0.38 0.09 70 1017.8
20260503131132 56 243 0.0 0.0 0.01 0.38 0.09 71 1017.7
20260503131016 56 243 0.0 0.0 0.01 0.38 0.09 71 1017.7
20260503130407 56 243 0.0 0.0 0.01 0.38 0.09 71 1017.8
20260503130354 56 243 0.0 0.0 0.01 0.38 0.09 73 1017.7
20260503110405 56 243 0.0 0.0 0.01 0.36 0.07 78 1016.7
20260503090404 57 243 0.0 0.0 0.01 0.34 0.05 82 1016.2
20260503081401 58 243 0.0 0.0 0.01 0.33 0.04 83 1016.4
20260503080902 58 243 0.0 0.0 0.01 0.33 0.04 84 1016.4
20260503080623 58 243 0.0 0.0 0.01 0.33 0.04 84 1016.4
20260503080509 58 243 0.0 0.0 0.01 0.33 0.04 84 1016.4
20260503072634 58 243 0.0 0.0 0.01 0.32 0.03 85 1016.3
20260503072510 58 243 0.0 0.0 0.01 0.32 0.03 85 1016.3
20260503072346 58 243 0.0 0.0 0.01 0.32 0.03 85 1016.4